TimePST,TemperatureF,Dew PointF,Humidity,Sea Level PressureIn,VisibilityMPH,Wind Direction,Wind SpeedMPH,Gust SpeedMPH,PrecipitationIn,Events,Conditions,WindDirDegrees,DateUTC
12:56 AM,32.0,25.0,75,30.18,10.0,Calm,Calm,-,N/A,,Clear,0,2012-12-25 08:56:00
1:56 AM,30.0,24.1,79,30.19,10.0,Calm,Calm,-,N/A,,Clear,0,2012-12-25 09:56:00
2:56 AM,28.0,23.0,81,30.20,10.0,WNW,5.8,-,N/A,,Clear,290,2012-12-25 10:56:00
3:56 AM,26.1,21.0,81,30.19,10.0,Calm,Calm,-,N/A,,Clear,0,2012-12-25 11:56:00
4:56 AM,27.0,21.0,78,30.19,10.0,West,4.6,-,N/A,,Clear,270,2012-12-25 12:56:00
5:56 AM,26.1,19.9,78,30.20,10.0,Calm,Calm,-,N/A,,Clear,0,2012-12-25 13:56:00
6:56 AM,27.0,21.0,78,30.21,10.0,Calm,Calm,-,N/A,,Clear,0,2012-12-25 14:56:00
7:56 AM,27.0,21.0,78,30.22,10.0,Calm,Calm,-,N/A,,Clear,0,2012-12-25 15:56:00
8:56 AM,33.1,25.0,72,30.22,10.0,Calm,Calm,-,N/A,,Clear,0,2012-12-25 16:56:00
9:56 AM,37.9,26.1,62,30.22,10.0,Calm,Calm,-,N/A,,Clear,0,2012-12-25 17:56:00
10:56 AM,43.0,28.0,56,30.21,10.0,Calm,Calm,-,N/A,,Clear,0,2012-12-25 18:56:00
11:56 AM,44.1,27.0,51,30.19,10.0,Calm,Calm,-,N/A,,Clear,0,2012-12-25 19:56:00
12:56 PM,45.0,24.1,44,30.16,10.0,SW,3.5,-,N/A,,Clear,220,2012-12-25 20:56:00
1:56 PM,46.9,21.0,36,30.12,10.0,Calm,Calm,-,N/A,,Clear,0,2012-12-25 21:56:00
2:56 PM,46.9,19.9,34,30.11,10.0,Calm,Calm,-,N/A,,Clear,0,2012-12-25 22:56:00
3:56 PM,46.9,19.0,33,30.09,10.0,Calm,Calm,-,N/A,,Clear,0,2012-12-25 23:56:00
4:56 PM,46.0,18.0,33,30.07,10.0,Calm,Calm,-,N/A,,Clear,0,2012-12-26 00:56:00
5:56 PM,43.0,19.0,38,30.08,10.0,South,3.5,-,N/A,,Clear,190,2012-12-26 01:56:00
6:56 PM,34.0,16.0,48,30.06,10.0,WNW,6.9,-,N/A,,Clear,290,2012-12-26 02:56:00
7:56 PM,33.1,16.0,50,30.07,10.0,WNW,9.2,-,N/A,,Clear,290,2012-12-26 03:56:00
8:56 PM,30.9,15.1,52,30.05,10.0,West,3.5,-,N/A,,Partly Cloudy,280,2012-12-26 04:56:00
9:56 PM,35.1,15.1,44,30.02,10.0,Variable,3.5,-,N/A,,Scattered Clouds,0,2012-12-26 05:56:00
10:56 PM,30.9,14.0,50,30.00,10.0,NNW,6.9,-,N/A,,Mostly Cloudy,330,2012-12-26 06:56:00
11:56 PM,45.0,28.9,53,29.96,10.0,West,11.5,-,N/A,,Overcast,260,2012-12-26 07:56:00